Location: *
(51.1248°S, 108.4023°W)
Time: 02:05:32
(UTC+00:00)

Cosmos 1544 - Pass Details

Date: 26 October 2021
Orbit: 467 x 486 km, 82.5° (Epoch: 03 December)

Event Time Altitude Azimuth Distance (km) Brightness Sun altitude
Exits shadow 07:31:47 21° 110° (ESE) 1,136 5.2 -25.9°
Drops below altitude 10° 07:33:57 10° 144° (SE) 1,679 6.6 -25.8°
Sets 07:36:22 0° 158° (SSE) 2,572 8.0 -25.8°
